Tracking 30166 objects as of 22-Jan-2025
HD Live streaming from Space Station
objects crossing your sky now

STARLINK-11483

Track STARLINK-11483 now!
10-day predictions
STARLINK-11483 is classified as:


NORAD ID: 62223
Int'l Code: 2024-231F
Perigee: 346.9 km
Apogee: 348.4 km
Inclination: 53.2 °
Period: 91.3 minutes
Semi major axis: 6718 km
RCS: Unknown
Launch date: December 5, 2024
Source: United States (US)
Launch site: AIR FORCE WESTERN TEST RANGE (AFWTR)
Your satellite tracking list
Your tracking list is empty




NASA's NSSDC Master Catalog

Two Line Element Set (TLE):
1 62223U 24231F   25021.23515544 -.00075681  00000-0 -46806-3 0  9992
2 62223  53.1546 334.3189 0001132 224.7884 135.3046 15.76460205  8639
Source of the keplerian elements: AFSPC